map of GND home
Great Circle Mapper logo
GND - Airport
Location
City:  St. George's, Grenada, Grenada
Name:Maurice Bishop International Airport
Old (Alt.):Point Salines International Airport
ICAO / IATA:TGPY / GND

Details
Type:Airport (Aerodrome, Airfield)
Use:Public/Civil, International (customs port of entry)
Latitude:1200'15"N (12.004167)
Longitude:6147'17"W (-61.788055)
Elevation:39 ft (12 m)
Variation:14.68W (WMM2015 magnetic declination)
-0.05 annual change
Runways:1
Longest:8999 × 148 ft (2743 × 45 m), paved

Time
Time Zone:UTC-4
Local Time:

Weather
METAR:TGPY 032100Z 07011KT 9999 FEW021 30/25 Q1012 NOSIG
TAF:TGPY 031047Z 0312/0412 09015KT 9999 FEW022
BECMG 0322/0324 07010KT FEW020
BECMG 0410/0412 11015KT FEW022

Related Locations
Nearby:
Farthest:TMC: 12241 mi / 19699 km
Tambolaka, NT, ID

Find:

   beyond  
but within

Other Information
Maps:
NOTAMs:
Links:
Sources:

  
flag of Grenada   

Sectional Chart

Flight Planning
at skyvector.com

Satellite Image

Google Maps Satellite view

 

Copyright © 2004-2015 Karl L. Swartz. All rights reserved.
The Great Circle Mapper name and logo are trademarks of the Great Circle Mapper.
All other trademarks mentioned herein belong to their respective owners.
Please see credits for attibutions and further copyright information.

  Follow gcmap on Facebook Follow gcmap on Twitter Follow gcmap on Google+

hCard Microformat

Geo Microformat